Weather History for Waukesha, WI

Change the Weather History Date:

Wednesday, May 30, 2012

  Actual Average Record
Temperature  
Mean Temperature 60 °F -  
Max Temperature 75 °F 71 °F 90 °F (1953)
Min Temperature 44 °F 51 °F 37 °F (1965)
Degree Days  
Heating Degree Days 6    
Growing Degree Days 10 (Base 50)    
Moisture  
Dew Point 44 °F    
Average Humidity 75    
Maximum Humidity 88    
Minimum Humidity 51    
Precipitation  
Precipitation 0.00 in - - ()
Sea Level Pressure  
Sea Level Pressure 29.92 in    
Wind  
Wind Speed 7 mph (NW)    
Max Wind Speed 14 mph    
Max Gust Speed -    
Visibility 10 miles    
Events      
Averages and records for this station are not official NWS values.
T = Trace of Precipitation, MM = Missing Value Source: NWS Daily Summary

Daily Weather History Graph

Daily Weather History Graph

Search for Another Location

Airport:

Trip Planner

Search our weather history database for the weather conditions in past years. The results will help you decide how hot, cold, wet, or windy it might be!

Date:

Astronomy

May. 30, 2012 Rise Set
Actual Time 5:17 AM CDT 8:24 PM CDT
Civil Twilight 4:42 AM CDT 8:58 PM CDT
Nautical Twilight 3:58 AM CDT 9:43 PM CDT
Astronomical Twilight 3:06 AM CDT 10:36 PM CDT
Moon 2:55 PM CDT (5/30) 1:50 AM CDT (5/30)
Length of Visible Light 16h 15m
Length of Day
15h 07m
Waxing Gibbous, 70% of the Moon is Illuminated
May 30
Waxing Gibbous
Jun 4
Full
Jun 11
Last Quarter
Jun 19
New
Jun 26
First Quarter

Hourly Weather History & Observations

Time (CDT) Temp. Windchill Dew Point Humidity Pressure Visibility Wind Dir Wind Speed Gust Speed Precip Events Conditions
12:15 AM 53.6 °F - 42.8 °F 67% 29.87 in 10.0 mi West 5.8 mph - N/A   Clear
12:35 AM 51.8 °F - 42.8 °F 71% 29.87 in 10.0 mi West 6.9 mph - N/A   Clear
12:55 AM 51.8 °F - 42.8 °F 71% 29.87 in 10.0 mi West 5.8 mph - N/A   Clear
1:15 AM 51.8 °F - 44.6 °F 76% 29.87 in 10.0 mi West 5.8 mph - N/A   Mostly Cloudy
1:35 AM 51.8 °F - 42.8 °F 71% 29.86 in 10.0 mi West 5.8 mph - N/A   Scattered Clouds
1:55 AM 51.8 °F - 44.6 °F 76% 29.86 in 10.0 mi West 5.8 mph - N/A   Scattered Clouds
2:15 AM 53.6 °F - 44.6 °F 72% 29.86 in 10.0 mi West 5.8 mph - N/A   Mostly Cloudy
2:35 AM 53.6 °F - 44.6 °F 72% 29.86 in 10.0 mi West 6.9 mph - N/A   Overcast
2:55 AM 53.6 °F - 44.6 °F 72% 29.85 in 10.0 mi West 6.9 mph - N/A   Overcast
3:15 AM 53.6 °F - 44.6 °F 72% 29.85 in 10.0 mi West 5.8 mph - N/A   Overcast
3:35 AM 53.6 °F - 44.6 °F 72% 29.85 in 10.0 mi West 5.8 mph - N/A   Overcast
3:55 AM 53.6 °F - 44.6 °F 72% 29.86 in 10.0 mi WSW 4.6 mph - N/A   Overcast
4:15 AM 53.6 °F - 44.6 °F 72% 29.86 in 10.0 mi West 5.8 mph - N/A   Overcast
4:35 AM 53.6 °F - 44.6 °F 72% 29.86 in 10.0 mi WNW 5.8 mph - N/A   Overcast
4:55 AM 51.8 °F - 44.6 °F 76% 29.86 in 10.0 mi WSW 3.5 mph - N/A   Overcast
5:15 AM 51.8 °F - 44.6 °F 76% 29.86 in 10.0 mi West 8.1 mph - N/A   Mostly Cloudy
5:35 AM 51.8 °F - 46.4 °F 82% 29.87 in 10.0 mi West 8.1 mph - N/A   Scattered Clouds
5:45 AM 53.6 °F - 46.4 °F 77% 29.88 in 10.0 mi WNW 8.1 mph - N/A   Mostly Cloudy
6:45 AM 55.4 °F - 46.4 °F 72% 29.90 in 10.0 mi WNW 9.2 mph - N/A   Clear
7:45 AM 57.2 °F - 46.4 °F 67% 29.90 in 10.0 mi WNW 12.7 mph - N/A   Scattered Clouds
8:45 AM 55.4 °F - 44.6 °F 67% 29.91 in 10.0 mi NW 9.2 mph - N/A   Overcast
9:45 AM 55.4 °F - 41.0 °F 58% 29.92 in 10.0 mi NW 13.8 mph - N/A   Overcast
10:45 AM 55.4 °F - 41.0 °F 58% 29.93 in 10.0 mi WNW 10.4 mph - N/A   Overcast
11:45 AM 55.4 °F - 41.0 °F 58% 29.95 in 10.0 mi WNW 12.7 mph - N/A   Overcast
12:45 PM 59.0 °F - 42.8 °F 55% 29.94 in 10.0 mi NW 6.9 mph - N/A   Mostly Cloudy
1:45 PM 59.0 °F - 41.0 °F 51% 29.94 in 10.0 mi NW 10.4 mph - N/A   Mostly Cloudy
2:45 PM 57.2 °F - 42.8 °F 59% 29.95 in 10.0 mi NW 6.9 mph - N/A   Overcast
2:53 PM 75.2 °F - 69.8 °F 83% 29.78 in 10.0 mi Calm Calm - N/A   Overcast
4:45 PM 51.8 °F - 48.2 °F 88% 29.97 in 10.0 mi ENE 11.5 mph - N/A   Overcast
5:45 PM 51.8 °F - 44.6 °F 76% 29.98 in 10.0 mi ENE 9.2 mph - N/A   Scattered Clouds
6:45 PM 50.0 °F - 44.6 °F 82% 29.99 in 10.0 mi NE 9.2 mph - N/A   Mostly Cloudy
7:45 PM 48.2 °F - 42.8 °F 82% 29.99 in 10.0 mi ENE 11.5 mph - N/A   Scattered Clouds
8:45 PM 46.4 °F 42.9 °F 42.8 °F 87% 30.00 in 10.0 mi East 6.9 mph - N/A   Scattered Clouds
9:15 PM 44.6 °F 40.2 °F 41.0 °F 87% 29.99 in 10.0 mi ENE 8.1 mph - N/A   Scattered Clouds
9:35 PM 44.6 °F 40.7 °F 41.0 °F 87% 29.99 in 10.0 mi ENE 6.9 mph - N/A   Clear
9:55 PM 44.6 °F 40.7 °F 41.0 °F 87% 29.99 in 10.0 mi ENE 6.9 mph - N/A   Clear
10:15 PM 44.6 °F 40.7 °F 41.0 °F 87% 29.99 in 10.0 mi ENE 6.9 mph - N/A   Mostly Cloudy
10:35 PM 44.6 °F 40.7 °F 41.0 °F 87% 29.99 in 10.0 mi ENE 6.9 mph - N/A   Overcast
10:55 PM 44.6 °F 42.2 °F 41.0 °F 87% 30.01 in 10.0 mi East 4.6 mph - N/A   Overcast
11:15 PM 44.6 °F 40.7 °F 41.0 °F 87% 30.01 in 10.0 mi ENE 6.9 mph - N/A   Overcast
11:35 PM 44.6 °F 40.7 °F 41.0 °F 87% 30.01 in 10.0 mi NE 6.9 mph - N/A   Overcast
11:55 PM 44.6 °F 42.2 °F 41.0 °F 87% 30.03 in 10.0 mi ENE 4.6 mph - N/A   Overcast